Location: *
(55.5817°S, 142.4781°W)
Time: 09:36:53
(UTC+00:00)

Cosmos 1864 Rocket - Pass Details

Date: 29 April 2025
Orbit: 950 x 997 km, 82.9° (Epoch: 18 May)

Event Time Altitude Azimuth Distance (km) Brightness Sun altitude
Exits shadow 13:46:25 29° 353° (N) 1,709 5.6 -26.2°
Maximum altitude 13:49:52 87° 81° (E) 980 4.4 -25.7°
Drops below altitude 10° 13:56:10 10° 168° (SSE) 2,745 7.1 -24.9°
Sets 13:58:43 0° 168° (SSE) 3,705 7.8 -24.5°
